Reidsville, NC

10:03 AM EDT on August 17, 2017 (GMT -0400)
Reidsville

Weather History for KSIF - January, 2014

Change the Weather History Date:

Thursday, January 30, 2014

  Actual Average (KGSO) Record (KGSO)
Temperature  
Mean Temperature 14 °F -  
Max Temperature 34 °F 49 °F 78 °F (2002)
Min Temperature -5 °F 29 °F 4 °F (1934)
Degree Days  
Heating Degree Days 50    
Moisture  
Dew Point 1 °F    
Average Humidity 62    
Maximum Humidity 88    
Minimum Humidity 24    
Precipitation  
Precipitation 0.00 in - - ()
Sea Level Pressure  
Sea Level Pressure 30.32 in    
Wind  
Wind Speed 0 mph (ENE)    
Max Wind Speed 5 mph    
Max Gust Speed -    
Visibility 10 miles    
Events      
Averages and records for this station are not official NWS values.
T = Trace of Precipitation, MM = Missing Value Source: NWS Daily Summary

Daily Weather History Graph

Daily Weather History Graph

Search for Another Location

Airport or City:

Trip Planner

Search our weather history database for the weather conditions in past years. The results will help you decide how hot, cold, wet, or windy it might be!

Date:

Astronomy

Jan. 30, 2014 Rise Set
Actual Time 7:22 AM EST 5:43 PM EST
Civil Twilight 6:55 AM EST 6:10 PM EST
Nautical Twilight 6:24 AM EST 6:41 PM EST
Astronomical Twilight 5:53 AM EST 7:12 PM EST
Moon 6:48 AM EST (1/30) 5:51 PM EST (1/30)
Length of Visible Light 11h 15m
Length of Day
10h 21m
Waning Crescent, 0% of the Moon is Illuminated
Jan 30
Waning Crescent
Jan 30
New
Feb 6
First Quarter
Feb 14
Full
Feb 22
Last Quarter

Hourly Weather History & Observations

Time (EST) Temp. Windchill Dew Point Humidity Pressure Visibility Wind Dir Wind Speed Gust Speed Precip Events Conditions
12:15 AM 3.4 °F - -0.8 °F 83% 30.34 in 10.0 mi Calm Calm - N/A   Clear
12:35 AM 1.6 °F - -1.7 °F 86% 30.35 in 10.0 mi Calm Calm - N/A   Clear
12:55 AM 3.6 °F - -0.6 °F 83% 30.34 in 10.0 mi Calm Calm - N/A   Clear
1:15 AM 0.7 °F - -2.2 °F 88% 30.34 in 10.0 mi Calm Calm - N/A   Clear
1:35 AM 1.6 °F - -1.1 °F 88% 30.34 in 10.0 mi Calm Calm - N/A   Clear
1:55 AM 0.7 °F - -2.2 °F 88% 30.35 in 10.0 mi Calm Calm - N/A   Clear
2:15 AM -0.6 °F - -3.5 °F 88% 30.36 in 10.0 mi Calm Calm - N/A   Clear
2:35 AM 0.7 °F - -2.6 °F 86% 30.36 in 10.0 mi Calm Calm - N/A   Clear
2:55 AM -0.8 °F - -4.0 °F 86% 30.37 in 10.0 mi Calm Calm - N/A   Clear
3:15 AM -0.4 °F - -3.8 °F 85% 30.37 in 10.0 mi Calm Calm - N/A   Clear
3:35 AM 1.2 °F - -1.5 °F 88% 30.37 in 10.0 mi Calm Calm - N/A   Clear
3:55 AM -0.9 °F - -4.2 °F 86% 30.38 in 10.0 mi Calm Calm - N/A   Clear
4:15 AM -2.7 °F - -5.8 °F 87% 30.38 in 10.0 mi Calm Calm - N/A   Clear
4:35 AM -3.3 °F - -6.7 °F 85% 30.38 in 10.0 mi Calm Calm - N/A   Clear
4:55 AM -3.6 °F - -6.7 °F 87% 30.38 in 10.0 mi Calm Calm - N/A   Clear
5:15 AM -3.5 °F - -6.5 °F 87% 30.37 in 10.0 mi Calm Calm - N/A   Clear
5:35 AM -1.5 °F - -4.2 °F 88% 30.38 in 10.0 mi Calm Calm - N/A   Clear
5:55 AM -3.6 °F - -6.9 °F 86% 30.38 in 10.0 mi Calm Calm - N/A   Clear
6:15 AM -4.5 °F - -8.0 °F 85% 30.38 in 10.0 mi Calm Calm - N/A   Clear
6:35 AM -5.1 °F - -8.7 °F 84% 30.39 in 10.0 mi Calm Calm - N/A   Clear
6:55 AM -4.2 °F - -7.6 °F 85% 30.39 in 10.0 mi Calm Calm - N/A   Clear
7:15 AM -5.3 °F - -8.7 °F 85% 30.39 in 10.0 mi Calm Calm - N/A   Clear
7:35 AM -5.3 °F - -8.7 °F 85% 30.40 in 10.0 mi Calm Calm - N/A   Clear
7:55 AM -3.8 °F - -6.9 °F 87% 30.40 in 10.0 mi Calm Calm - N/A   Clear
8:15 AM -1.1 °F - -4.4 °F 86% 30.40 in 10.0 mi Calm Calm - N/A   Clear
8:35 AM 3.0 °F - -0.0 °F 87% 30.41 in 7.0 mi Calm Calm - N/A   Clear
8:55 AM 6.1 °F - 3.2 °F 88% 30.41 in 10.0 mi Calm Calm - N/A   Clear
9:15 AM 9.1 °F - 6.1 °F 87% 30.42 in 10.0 mi Calm Calm - N/A   Clear
9:35 AM 15.6 °F - 7.7 °F 71% 30.41 in 10.0 mi Calm Calm - N/A   Clear
9:55 AM 17.8 °F - 5.2 °F 58% 30.42 in 10.0 mi Calm Calm - N/A   Clear
10:15 AM 21.2 °F - 2.7 °F 45% 30.42 in 10.0 mi Calm Calm - N/A   Clear
10:35 AM 22.1 °F 15.9 °F 2.7 °F 43% 30.42 in 10.0 mi ENE 4.6 mph - N/A   Clear
10:55 AM 23.2 °F 17.2 °F 1.2 °F 39% 30.41 in 10.0 mi NE 4.6 mph - N/A   Clear
11:15 AM 24.6 °F 20.3 °F 1.8 °F 37% 30.40 in 10.0 mi NE 3.5 mph - N/A   Clear
11:35 AM 25.7 °F 21.5 °F 1.9 °F 36% 30.39 in 10.0 mi East 3.5 mph - N/A   Clear
11:55 AM 27.1 °F - 0.9 °F 32% 30.39 in 10.0 mi Calm Calm - N/A   Clear
12:15 PM 27.3 °F 23.4 °F 0.5 °F 32% 30.38 in 10.0 mi West 3.5 mph - N/A   Clear
12:35 PM 28.4 °F - -0.9 °F 28% 30.36 in 10.0 mi Calm Calm - N/A   Clear
12:55 PM 29.5 °F 25.9 °F 0.3 °F 29% 30.33 in 10.0 mi NE 3.5 mph - N/A   Clear
1:15 PM 29.7 °F 26.1 °F 1.8 °F 30% 30.33 in 10.0 mi South 3.5 mph - N/A   Clear
1:35 PM 30.2 °F - 0.7 °F 28% 30.32 in 10.0 mi Calm Calm - N/A   Clear
1:55 PM 32.0 °F - 2.3 °F 28% 30.31 in 10.0 mi Calm Calm - N/A   Clear
2:15 PM 31.6 °F - 0.3 °F 26% 30.31 in 10.0 mi Calm Calm - N/A   Clear
2:35 PM 32.0 °F - 1.0 °F 27% 30.30 in 10.0 mi Calm Calm - N/A   Clear
2:55 PM 32.2 °F - 1.4 °F 27% 30.28 in 10.0 mi Calm Calm - N/A   Clear
3:15 PM 32.9 °F - 2.5 °F 28% 30.28 in 10.0 mi Calm Calm - N/A   Clear
3:35 PM 33.1 °F 30.0 °F 1.2 °F 26% 30.27 in 10.0 mi NE 3.5 mph - N/A   Clear
3:55 PM 33.8 °F - 1.9 °F 26% 30.27 in 10.0 mi Calm Calm - N/A   Clear
4:15 PM 34.0 °F - 0.5 °F 24% 30.26 in 10.0 mi Calm Calm - N/A   Clear
4:35 PM 34.0 °F - 0.5 °F 24% 30.25 in 10.0 mi Calm Calm - N/A   Clear
4:55 PM 33.4 °F 29.1 °F 2.3 °F 27% 30.25 in 10.0 mi SSE 4.6 mph - N/A   Clear
5:15 PM 32.4 °F - 1.9 °F 28% 30.25 in 10.0 mi Calm Calm - N/A   Clear
5:35 PM 31.8 °F - 0.9 °F 27% 30.23 in 10.0 mi Calm Calm - N/A   Clear
5:55 PM 27.1 °F - 2.3 °F 35% 30.23 in 10.0 mi Calm Calm - N/A   Clear
6:15 PM 25.3 °F - 4.3 °F 41% 30.22 in 10.0 mi Calm Calm - N/A   Clear
6:35 PM 23.7 °F - 5.9 °F 47% 30.23 in 10.0 mi Calm Calm - N/A   Clear
6:55 PM 22.6 °F - 6.4 °F 50% 30.24 in 10.0 mi Calm Calm - N/A   Clear
7:15 PM 22.6 °F - 4.6 °F 46% 30.25 in 10.0 mi Calm Calm - N/A   Clear
7:35 PM 20.7 °F - 7.0 °F 56% 30.24 in 10.0 mi Calm Calm - N/A   Clear
7:55 PM 18.3 °F - 6.8 °F 61% 30.24 in 10.0 mi Calm Calm - N/A   Clear
8:15 PM 16.5 °F - 6.1 °F 64% 30.24 in 10.0 mi Calm Calm - N/A   Clear
8:35 PM 16.3 °F - 6.8 °F 66% 30.24 in 10.0 mi Calm Calm - N/A   Clear
8:55 PM 16.0 °F - 6.6 °F 67% 30.24 in 10.0 mi Calm Calm - N/A   Clear
9:15 PM 16.2 °F - 6.1 °F 65% 30.25 in 10.0 mi Calm Calm - N/A   Clear
9:35 PM 15.6 °F - 7.0 °F 69% 30.25 in 10.0 mi Calm Calm - N/A   Clear
9:55 PM 14.5 °F - 7.7 °F 74% 30.25 in 10.0 mi Calm Calm - N/A   Clear
10:15 PM 13.6 °F - 7.7 °F 77% 30.25 in 10.0 mi Calm Calm - N/A   Clear
10:35 PM 12.9 °F - 7.5 °F 79% 30.24 in 10.0 mi Calm Calm - N/A   Clear
10:55 PM 13.6 °F - 8.1 °F 78% 30.23 in 10.0 mi Calm Calm - N/A   Clear
11:15 PM 11.8 °F - 7.2 °F 81% 30.23 in 10.0 mi Calm Calm - N/A   Clear
11:35 PM 11.8 °F - 7.3 °F 82% 30.22 in 10.0 mi Calm Calm - N/A   Clear
11:55 PM 11.3 °F - 7.2 °F 83% 30.21 in 10.0 mi Calm Calm - N/A   Clear